Saratoga-Weather Station Historical Data
 
Daily Summary for March 21, 2019 Units:  English    Metric   Both
Daily Weekly Monthly Yearly Custom
  Current: High: Low: Average:
Temperature: 39.6 °F 40.3 °F 39.4 °F 39.6 °F
Dew Point: 34.5 °F 34.7 °F 30.6 °F 32.7 °F
Humidity: 82% 83% 69% 76%
Wind Speed: 0.0mph 0.0mph 0.0mph 0mph
Wind Gust: 0.0mph 0.0mph - -
WindCalm - - North
Pressure: 29.99 in 30.13 in 29.99 in -
Precipitation: 0.00 in      
Historical Graphs
 
 
Tabular Data for March 21, 2019
Time Temperature Dew Point Pressure Wind Wind Speed Wind Gust Humidity Rainfall Rate (Hourly) solar
00:04 40.3 °F 30.9 °F 30.13 in Calm     69% 0.00 in meteobridge W/m2
00:09 40.3 °F 31.6 °F 30.13 in Calm     71% 0.00 in meteobridge W/m2
00:14 40.3 °F 31.3 °F 30.13 in Calm     70% 0.00 in meteobridge W/m2
00:19 40.1 °F 31.1 °F 30.12 in Calm     70% 0.00 in meteobridge W/m2
00:24 39.9 °F 30.6 °F 30.12 in Calm     69% 0.00 in meteobridge W/m2
00:29 39.9 °F 30.9 °F 30.12 in Calm     70% 0.00 in meteobridge W/m2
00:34 39.9 °F 30.9 °F 30.12 in Calm     70% 0.00 in meteobridge W/m2
00:39 39.9 °F 30.6 °F 30.12 in Calm     69% 0.00 in meteobridge W/m2
00:43 39.9 °F 31.3 °F 30.12 in Calm     71% 0.00 in meteobridge W/m2
00:49 39.7 °F 31.1 °F 30.12 in Calm     71% 0.00 in meteobridge W/m2
00:54 39.7 °F 31.1 °F 30.12 in Calm     71% 0.00 in meteobridge W/m2
00:59 39.7 °F 31.1 °F 30.12 in Calm     71% 0.00 in meteobridge W/m2
01:04 39.7 °F 30.7 °F 30.11 in Calm     70% 0.00 in meteobridge W/m2
01:09 39.6 °F 30.6 °F 30.11 in Calm     70% 0.00 in meteobridge W/m2
01:14 39.6 °F 30.9 °F 30.11 in Calm     71% 0.00 in meteobridge W/m2
01:19 39.6 °F 31.3 °F 30.11 in Calm     72% 0.00 in meteobridge W/m2
01:23 39.4 °F 31.1 °F 30.10 in Calm     72% 0.00 in meteobridge W/m2
01:29 39.4 °F 31.5 °F 30.10 in Calm     73% 0.00 in meteobridge W/m2
01:34 39.4 °F 31.5 °F 30.10 in Calm     73% 0.00 in meteobridge W/m2
01:39 39.4 °F 31.5 °F 30.10 in Calm     73% 0.00 in meteobridge W/m2
01:44 39.4 °F 31.8 °F 30.10 in Calm     74% 0.00 in meteobridge W/m2
01:49 39.4 °F 31.8 °F 30.10 in Calm     74% 0.00 in meteobridge W/m2
01:54 39.4 °F 31.5 °F 30.10 in Calm     73% 0.00 in meteobridge W/m2
01:59 39.6 °F 31.6 °F 30.09 in Calm     73% 0.00 in meteobridge W/m2
02:04 39.6 °F 32.0 °F 30.09 in Calm     74% 0.00 in meteobridge W/m2
02:09 39.6 °F 32.0 °F 30.09 in Calm     74% 0.00 in meteobridge W/m2
02:14 39.6 °F 32.0 °F 30.09 in Calm     74% 0.00 in meteobridge W/m2
02:19 39.4 °F 31.8 °F 30.09 in Calm     74% 0.00 in meteobridge W/m2
02:24 39.4 °F 31.8 °F 30.09 in Calm     74% 0.00 in meteobridge W/m2
02:29 39.4 °F 31.8 °F 30.09 in Calm     74% 0.00 in meteobridge W/m2
02:34 39.4 °F 31.8 °F 30.09 in Calm     74% 0.00 in meteobridge W/m2
02:39 39.4 °F 31.8 °F 30.09 in Calm     74% 0.00 in meteobridge W/m2
02:44 39.4 °F 32.2 °F 30.09 in Calm     75% 0.00 in meteobridge W/m2
02:49 39.4 °F 32.2 °F 30.09 in Calm     75% 0.00 in meteobridge W/m2
02:54 39.4 °F 32.5 °F 30.08 in Calm     76% 0.00 in meteobridge W/m2
02:59 39.4 °F 32.5 °F 30.08 in Calm     76% 0.00 in meteobridge W/m2
03:04 39.4 °F 32.5 °F 30.08 in Calm     76% 0.00 in meteobridge W/m2
03:09 39.4 °F 32.5 °F 30.08 in Calm     76% 0.00 in meteobridge W/m2
03:14 39.4 °F 32.5 °F 30.08 in Calm     76% 0.00 in meteobridge W/m2
03:19 39.6 °F 32.5 °F 30.07 in Calm     76% 0.00 in meteobridge W/m2
03:24 39.7 °F 32.5 °F 30.07 in Calm     75% 0.00 in meteobridge W/m2
03:29 39.7 °F 32.7 °F 30.06 in Calm     76% 0.00 in meteobridge W/m2
03:34 39.9 °F 32.9 °F 30.06 in Calm     76% 0.00 in meteobridge W/m2
03:39 39.9 °F 32.9 °F 30.05 in Calm     76% 0.00 in meteobridge W/m2
03:44 39.9 °F 32.7 °F 30.05 in Calm     75% 0.00 in meteobridge W/m2
03:49 39.9 °F 32.7 °F 30.04 in Calm     75% 0.00 in meteobridge W/m2
03:54 39.9 °F 32.4 °F 30.04 in Calm     74% 0.00 in meteobridge W/m2
03:59 39.9 °F 32.4 °F 30.04 in Calm     74% 0.00 in meteobridge W/m2
04:04 39.9 °F 32.7 °F 30.03 in Calm     75% 0.00 in meteobridge W/m2
04:09 39.7 °F 32.2 °F 30.03 in Calm     74% 0.00 in meteobridge W/m2
04:14 39.7 °F 32.5 °F 30.03 in Calm     75% 0.00 in meteobridge W/m2
04:19 39.7 °F 32.7 °F 30.02 in Calm     76% 0.00 in meteobridge W/m2
04:24 39.7 °F 32.7 °F 30.02 in Calm     76% 0.00 in meteobridge W/m2
04:29 39.7 °F 32.7 °F 30.02 in Calm     76% 0.00 in meteobridge W/m2
04:34 39.7 °F 32.5 °F 30.02 in Calm     75% 0.00 in meteobridge W/m2
04:39 39.7 °F 32.5 °F 30.01 in Calm     75% 0.00 in meteobridge W/m2
04:44 39.7 °F 32.7 °F 30.01 in Calm     76% 0.00 in meteobridge W/m2
04:49 39.7 °F 32.7 °F 30.01 in Calm     76% 0.00 in meteobridge W/m2
04:54 39.7 °F 33.1 °F 30.01 in Calm     77% 0.00 in meteobridge W/m2
04:59 39.7 °F 33.4 °F 30.01 in Calm     78% 0.00 in meteobridge W/m2
05:04 39.7 °F 33.1 °F 30.01 in Calm     77% 0.00 in meteobridge W/m2
05:09 39.7 °F 33.1 °F 30.00 in Calm     77% 0.00 in meteobridge W/m2
05:14 39.7 °F 33.1 °F 30.00 in Calm     77% 0.00 in meteobridge W/m2
05:19 39.7 °F 32.7 °F 30.00 in Calm     76% 0.00 in meteobridge W/m2
05:24 39.6 °F 32.5 °F 30.00 in Calm     76% 0.00 in meteobridge W/m2
05:29 39.7 °F 32.7 °F 30.00 in Calm     76% 0.00 in meteobridge W/m2
05:34 39.7 °F 33.1 °F 30.00 in Calm     77% 0.00 in meteobridge W/m2
05:39 39.6 °F 32.9 °F 30.00 in Calm     77% 0.00 in meteobridge W/m2
05:44 39.6 °F 32.9 °F 30.00 in Calm     77% 0.00 in meteobridge W/m2
05:49 39.6 °F 33.3 °F 30.00 in Calm     78% 0.00 in meteobridge W/m2
05:54 39.6 °F 33.3 °F 30.00 in Calm     78% 0.00 in meteobridge W/m2
05:59 39.6 °F 33.3 °F 30.00 in Calm     78% 0.00 in meteobridge W/m2
06:04 39.6 °F 33.3 °F 30.00 in Calm     78% 0.00 in meteobridge W/m2
06:09 39.6 °F 33.6 °F 30.00 in Calm     79% 0.00 in meteobridge W/m2
06:14 39.6 °F 33.6 °F 30.00 in Calm     79% 0.00 in meteobridge W/m2
06:19 39.6 °F 34.0 °F 30.00 in Calm     80% 0.00 in meteobridge W/m2
06:24 39.6 °F 34.0 °F 30.00 in Calm     80% 0.00 in meteobridge W/m2
06:29 39.6 °F 34.0 °F 29.99 in Calm     80% 0.00 in meteobridge W/m2
06:34 39.6 °F 34.0 °F 29.99 in Calm     80% 0.00 in meteobridge W/m2
06:39 39.4 °F 33.4 °F 29.99 in Calm     79% 0.00 in meteobridge W/m2
06:44 39.4 °F 33.8 °F 29.99 in Calm     80% 0.00 in meteobridge W/m2
06:49 39.4 °F 33.8 °F 30.00 in Calm     80% 0.00 in meteobridge W/m2
06:54 39.4 °F 33.8 °F 30.00 in Calm     80% 0.00 in meteobridge W/m2
06:59 39.4 °F 33.4 °F 30.00 in Calm     79% 0.00 in meteobridge W/m2
07:04 39.4 °F 33.8 °F 30.00 in Calm     80% 0.00 in meteobridge W/m2
07:09 39.6 °F 34.0 °F 30.00 in Calm     80% 0.00 in meteobridge W/m2
07:14 39.6 °F 34.0 °F 29.99 in Calm     80% 0.00 in meteobridge W/m2
07:19 39.6 °F 34.0 °F 29.99 in Calm     80% 0.00 in meteobridge W/m2
07:24 39.6 °F 34.2 °F 29.99 in Calm     81% 0.00 in meteobridge W/m2
07:29 39.4 °F 34.0 °F 29.99 in Calm     81% 0.00 in meteobridge W/m2
07:34 39.4 °F 34.0 °F 30.00 in Calm     81% 0.00 in meteobridge W/m2
07:39 39.4 °F 34.0 °F 30.00 in Calm     81% 0.00 in meteobridge W/m2
07:44 39.4 °F 34.0 °F 30.00 in Calm     81% 0.00 in meteobridge W/m2
07:49 39.4 °F 34.0 °F 30.00 in Calm     81% 0.00 in meteobridge W/m2
07:54 39.4 °F 34.0 °F 30.00 in Calm     81% 0.00 in meteobridge W/m2
07:59 39.4 °F 34.3 °F 30.00 in Calm     82% 0.00 in meteobridge W/m2
08:04 39.4 °F 34.7 °F 30.00 in Calm     83% 0.00 in meteobridge W/m2
08:09 39.4 °F 34.3 °F 29.99 in Calm     82% 0.00 in meteobridge W/m2
08:14 39.4 °F 34.3 °F 29.99 in Calm     82% 0.00 in meteobridge W/m2
08:19 39.6 °F 34.5 °F 29.99 in Calm     82% 0.00 in meteobridge W/m2
08:24 39.6 °F 34.5 °F 29.99 in Calm     82% 0.00 in meteobridge W/m2
08:29 39.6 °F 34.5 °F 29.99 in Calm     82% 0.00 in meteobridge W/m2
Juneau County Weather
Compliments of Weather Underground - 1.5 mb